Wind_Speed
42 44 46 47 47 47 49 50 50 50 51 50 50 50 51 52 53 54 55 55 55 55 56 55 55 56 56 56 56 56 55 55 54 53 53 54 54 53 54 54 54 53 53
42 43 45 46 47 47 48 49 49 50 51 51 51 51 51 51 52 53 54 55 55 55 56 55 55 55 56 56 56 56 57 56 56 55 54 54 55 55 55 55 55 55 55
41 42 43 45 47 48 47 48 50 51 51 51 51 51 52 52 53 53 53 54 55 56 56 56 56 56 57 57 58 58 58 58 58 57 56 56 56 56 56 56 56 56 56
40 41 42 43 45 46 48 49 50 50 51 52 52 52 53 54 54 54 54 54 55 56 56 56 56 57 57 58 59 59 59 60 59 58 58 57 57 57 57 57 57 56 56
39 40 41 42 43 44 46 47 48 48 50 51 52 52 52 53 54 54 55 55 55 55 55 56 57 57 58 58 59 59 59 60 59 59 58 58 58 58 57 56 56 55 56
38 39 40 41 42 44 45 46 46 47 48 50 50 50 51 52 52 53 54 55 55 55 55 56 57 58 58 58 59 59 58 59 59 58 58 58 57 58 58 57 56 56 55
38 39 40 41 42 43 45 45 46 46 46 47 48 50 51 51 51 52 53 54 54 55 55 55 56 57 58 59 59 58 57 57 57 57 57 57 56 57 57 57 56 56 55
38 39 39 40 40 41 43 44 45 45 46 47 47 48 49 51 52 52 53 54 54 54 55 55 55 55 55 56 56 56 56 57 57 56 56 55 56 56 57 57 56 56 55
39 39 39 39 39 40 41 41 43 44 44 45 45 46 47 48 49 49 50 50 51 51 51 51 51 51 51 51 52 52 53 53 55 56 54 54 55 55 56 56 56 55 55
38 39 40 39 39 40 40 40 40 41 42 43 44 45 46 46 47 48 48 48 48 48 48 48 48 48 48 49 50 50 51 52 53 53 53 53 54 54 54 55 56 56 56
39 40 40 40 40 39 40 40 41 41 42 42 43 44 45 45 46 46 46 46 46 47 47 47 47 47 48 48 49 49 49 50 51 51 51 51 52 52 53 54 55 55 55
38 38 39 39 39 40 40 40 41 42 42 42 42 43 44 45 45 45 45 45 45 45 45 46 46 47 47 47 48 49 49 50 51 51 51 51 51 51 51 52 53 54 54
37 37 37 38 38 38 39 39 39 40 41 41 41 42 42 42 42 43 43 43 43 44 45 45 46 46 46 46 46 47 48 49 49 49 49 49 49 50 50 51 52 52 52
38 37 37 37 37 37 37 38 38 39 39 39 40 40 40 40 40 41 42 42 42 43 44 44 45 45 46 46 46 47 47 48 47 47 46 47 48 48 49 50 50 50 51
38 37 37 36 36 35 35 35 36 37 37 38 39 39 39 39 40 40 41 41 41 41 42 43 44 44 45 46 46 46 46 45 45 46 46 46 46 46 47 48 49 49 48
36 35 35 34 34 34 34 34 35 35 36 36 36 37 37 39 40 40 41 41 42 42 42 42 43 44 44 44 44 44 44 44 44 44 45 44 44 44 45 45 46 47 47
34 34 33 33 33 33 33 33 33 33 33 34 34 35 36 37 37 38 39 39 39 40 40 40 41 42 42 42 43 43 43 43 43 43 44 44 44 43 43 44 45 45 46
33 32 31 31 31 31 31 31 31 31 31 32 33 34 35 35 36 36 37 37 37 38 38 38 39 40 41 41 41 42 42 43 43 43 43 43 43 43 43 44 44 45 46
31 30 30 29 29 29 29 29 29 30 30 31 31 32 33 33 34 34 35 35 35 36 36 37 38 39 39 39 39 40 40 41 41 41 41 42 42 43 43 43 44 44 44
30 29 28 28 28 28 28 28 28 29 29 30 30 30 31 31 31 32 33 33 34 34 35 35 36 36 37 37 37 37 37 38 39 39 39 40 40 41 41 41 42 42 43
29 28 28 27 27 27 27 27 27 27 27 27 27 28 28 29 29 30 30 31 32 32 32 33 33 34 34 34 35 35 36 36 37 37 37 37 38 38 38 39 40 40 40
28 27 27 27 26 26 25 25 25 25 25 25 25 25 26 27 27 28 28 29 30 30 31 31 31 31 31 32 33 34 35 35 36 37 36 36 36 36 37 37 38 38 38
27 26 26 25 24 24 24 24 24 24 24 24 24 24 25 25 26 26 27 27 28 28 28 29 29 29 29 30 30 31 33 33 34 35 36 35 35 36 36 37 37 37 36
26 25 25 24 23 23 23 23 23 23 24 24 24 24 25 25 25 25 26 27 27 27 27 27 27 28 28 29 29 30 31 32 33 34 35 35 35 35 36 36 36 36 36
25 25 24 24 24 24 24 23 23 24 24 24 25 25 24 24 24 24 25 25 26 26 26 27 27 27 27 28 28 28 29 29 30 31 32 33 34 34 34 35 35 35 35
25 24 24 24 24 24 24 24 24 24 24 24 24 24 24 24 24 24 24 24 24 25 25 25 26 26 26 27 27 27 27 28 29 30 30 31 32 32 32 33 33 33 33
Wind_Direction
269 266 263 263 263 262 260 259 258 258 258 258 258 258 258 258 258 257 257 257 257 258 259 259 258 258 259 260 260 260 260 261 261 262 262 261 261 262 263 263 264 264 264
271 268 265 264 263 262 261 261 260 260 259 259 259 259 259 259 259 258 259 258 258 259 260 260 259 259 259 260 260 260 260 261 261 262 262 263 262 263 263 263 263 263 263
273 270 266 265 263 262 262 262 262 262 261 261 261 261 261 261 260 259 260 259 259 259 259 260 260 260 260 260 260 260 260 261 262 262 262 263 263 262 263 263 263 262 263
274 272 269 267 265 264 263 263 263 262 261 261 261 261 261 261 260 260 261 260 259 259 259 259 260 260 261 261 260 261 261 261 262 263 263 263 263 262 263 264 263 262 263
276 273 271 269 267 265 264 264 263 262 261 261 261 261 261 260 260 260 260 259 259 259 259 259 260 260 261 261 262 261 261 261 261 263 263 263 263 263 263 263 263 263 263
277 274 273 271 269 267 266 265 265 264 263 262 260 260 260 260 260 261 261 260 259 259 259 260 261 261 262 262 262 262 261 260 261 262 263 263 263 263 263 263 263 263 263
279 277 276 275 273 269 266 265 265 265 264 262 260 260 259 259 261 262 262 261 260 259 260 261 262 263 262 262 261 261 261 261 261 262 263 263 263 263 263 263 263 264 263
281 279 277 276 274 271 268 266 266 266 265 263 262 261 259 260 261 262 263 262 261 260 260 261 261 261 261 261 260 260 260 261 261 261 262 263 263 263 262 262 263 264 263
283 281 279 278 275 273 271 269 268 267 266 265 264 262 262 262 263 264 265 264 262 261 260 260 261 261 260 259 260 260 259 260 260 260 261 262 263 263 263 262 262 263 263
283 282 280 279 278 276 274 272 271 269 268 266 264 264 264 264 264 265 266 265 263 261 260 260 261 260 259 260 260 260 260 260 260 260 261 262 263 263 262 262 262 263 263
283 282 281 278 278 276 274 272 271 270 269 267 265 264 265 265 266 266 266 265 264 262 261 261 261 261 260 261 261 261 261 260 260 260 261 262 262 262 262 263 262 263 263
285 283 281 279 277 276 275 274 272 271 270 268 266 265 265 266 266 266 266 266 264 262 261 261 261 261 261 261 262 261 261 262 262 262 263 262 262 262 263 263 263 264 264
286 284 283 280 278 278 277 276 275 274 271 269 267 266 265 266 266 267 267 266 265 263 262 262 261 261 261 261 261 261 262 263 264 264 264 263 263 263 263 263 263 263 263
289 286 284 282 281 281 279 277 276 275 272 270 268 266 266 266 267 266 266 265 265 264 263 261 261 260 261 261 261 262 262 262 263 264 264 264 264 263 263 263 262 262 262
289 287 285 283 283 283 281 279 278 276 274 271 268 267 266 266 266 266 266 265 264 264 262 261 261 261 261 262 262 263 263 262 262 262 263 264 264 263 262 262 262 262 263
289 287 286 285 284 284 282 280 279 278 275 273 271 270 269 268 267 266 266 265 264 264 262 261 260 260 261 261 262 262 262 262 263 262 262 262 263 262 261 262 263 263 264
289 287 286 286 285 283 281 280 280 278 276 274 272 271 270 269 268 267 266 266 265 264 263 263 261 261 261 262 262 261 261 262 262 262 262 262 262 262 262 263 264 265 265
290 288 287 287 287 285 282 281 280 278 277 276 274 271 270 269 267 267 266 266 265 265 265 265 264 264 264 264 264 263 262 261 262 262 263 262 262 262 263 264 265 265 266
290 289 289 289 288 287 285 283 282 280 280 280 277 275 273 271 269 268 267 266 265 265 265 266 266 265 265 265 265 264 263 263 263 263 264 264 264 264 265 266 267 268 268
292 290 290 290 289 288 286 285 284 283 283 282 280 277 275 272 271 269 268 266 266 266 266 267 268 267 265 265 265 264 264 263 263 264 264 265 265 266 267 268 269 269 270
292 291 290 289 288 287 286 286 286 285 284 284 282 280 277 274 273 270 269 267 267 267 267 269 269 269 267 265 265 264 264 264 263 264 264 266 266 267 268 269 270 270 270
292 290 288 287 287 287 286 286 287 288 287 287 286 284 281 279 276 273 271 269 269 269 270 270 271 269 268 267 265 265 264 265 265 265 266 266 267 268 269 269 270 270 270
293 290 288 287 287 288 288 288 288 289 290 289 289 287 285 284 281 277 274 273 271 271 272 272 271 270 269 269 268 268 267 267 267 266 267 268 268 268 269 269 270 270 269
294 292 290 289 287 287 288 288 288 290 291 290 290 289 286 286 284 280 277 275 273 272 272 272 272 272 271 271 271 270 269 268 268 267 267 268 269 269 269 269 269 269 269
295 293 291 289 287 287 288 287 288 289 290 290 290 290 287 286 285 282 280 278 276 274 274 274 273 273 273 273 273 272 270 270 270 270 269 269 269 270 270 270 270 270 269
297 295 293 290 287 287 287 287 288 288 289 289 289 289 288 286 285 284 282 280 277 276 275 275 275 275 275 274 273 273 273 272 272 272 271 271 271 271 272 271 270 269 268
Height
5580 5580 5581 5581 5582 5583 5585 5586 5588 5590 5592 5594 5596 5598 5600 5602 5604 5606 5609 5612 5614 5617 5619 5621 5624 5626 5628 5630 5632 5634 5636 5638 5641 5645 5646 5647 5648 5650 5651 5652 5653 5654 5656
5568 5567 5567 5568 5569 5570 5571 5573 5574 5576 5578 5580 5582 5584 5586 5587 5589 5591 5594 5597 5599 5602 5604 5606 5608 5610 5613 5615 5617 5619 5621 5623 5625 5628 5631 5632 5633 5634 5635 5637 5638 5639 5641
5555 5555 5555 5555 5556 5557 5558 5559 5560 5562 5563 5565 5567 5569 5571 5572 5574 5576 5578 5581 5583 5586 5588 5590 5593 5595 5597 5599 5601 5603 5605 5607 5608 5611 5615 5617 5618 5618 5619 5622 5623 5624 5625
5544 5543 5543 5543 5543 5543 5544 5545 5546 5547 5549 5551 5552 5554 5556 5557 5559 5561 5563 5565 5567 5570 5572 5574 5576 5579 5581 5583 5585 5587 5589 5591 5592 5595 5598 5600 5601 5602 5603 5605 5607 5608 5610
5533 5532 5531 5531 5530 5530 5531 5531 5532 5533 5534 5536 5537 5539 5540 5542 5543 5545 5547 5549 5551 5554 5556 5558 5560 5562 5564 5566 5568 5570 5572 5574 5576 5578 5581 5583 5585 5586 5588 5589 5590 5592 5594
5522 5520 5519 5518 5517 5517 5518 5518 5518 5519 5520 5521 5522 5524 5525 5527 5528 5530 5531 5533 5536 5538 5540 5542 5544 5546 5547 5549 5551 5553 5555 5558 5560 5562 5564 5567 5569 5570 5571 5573 5574 5577 5580
5510 5509 5507 5506 5505 5505 5505 5505 5505 5505 5506 5507 5508 5509 5511 5512 5513 5514 5515 5517 5520 5522 5524 5526 5527 5529 5530 5532 5534 5536 5538 5540 5543 5546 5548 5550 5552 5554 5555 5557 5558 5560 5563
5499 5497 5495 5494 5493 5492 5491 5491 5492 5492 5492 5493 5494 5495 5496 5498 5499 5499 5500 5502 5504 5506 5508 5509 5511 5513 5514 5515 5518 5520 5522 5525 5527 5530 5533 5535 5535 5536 5538 5540 5542 5544 5546
5487 5485 5483 5482 5480 5479 5479 5478 5478 5478 5479 5479 5480 5481 5482 5483 5484 5485 5486 5487 5488 5490 5492 5493 5495 5497 5498 5500 5502 5505 5507 5509 5510 5513 5516 5517 5519 5520 5521 5522 5525 5527 5529
5476 5473 5471 5470 5468 5467 5467 5466 5466 5466 5466 5466 5467 5467 5468 5469 5470 5471 5471 5472 5474 5476 5477 5479 5480 5482 5483 5484 5487 5489 5492 5494 5496 5498 5499 5501 5502 5503 5504 5506 5508 5510 5512
5463 5461 5459 5458 5457 5455 5455 5454 5453 5453 5453 5453 5454 5454 5455 5456 5456 5457 5458 5458 5460 5461 5463 5465 5467 5468 5469 5470 5472 5474 5476 5478 5480 5481 5483 5485 5486 5487 5489 5490 5491 5493 5496
5452 5449 5447 5446 5444 5443 5442 5441 5441 5440 5440 5440 5440 5441 5441 5442 5443 5444 5445 5445 5446 5447 5450 5451 5453 5454 5455 5456 5458 5459 5461 5462 5464 5465 5467 5469 5470 5472 5473 5475 5476 5477 5479
5440 5437 5435 5434 5432 5431 5430 5429 5429 5428 5427 5427 5427 5428 5429 5429 5430 5431 5431 5432 5432 5434 5436 5437 5439 5440 5441 5442 5444 5445 5446 5447 5449 5450 5452 5454 5456 5457 5458 5459 5461 5462 5464
5428 5426 5424 5423 5421 5419 5418 5417 5416 5416 5415 5415 5415 5416 5416 5417 5417 5418 5418 5419 5420 5420 5422 5423 5425 5426 5427 5428 5429 5430 5432 5433 5434 5436 5437 5439 5440 5441 5443 5444 5446 5447 5449
5417 5415 5413 5411 5410 5408 5407 5405 5404 5404 5403 5403 5403 5403 5404 5405 5405 5405 5405 5406 5407 5408 5409 5410 5411 5412 5414 5415 5416 5417 5418 5419 5420 5422 5423 5424 5426 5427 5428 5430 5431 5433 5434
5406 5404 5402 5400 5399 5397 5396 5394 5393 5392 5391 5391 5391 5391 5391 5392 5392 5392 5393 5393 5394 5395 5395 5397 5398 5399 5401 5402 5403 5404 5405 5406 5407 5408 5409 5411 5412 5413 5415 5416 5417 5418 5420
5396 5394 5392 5390 5388 5387 5385 5384 5383 5382 5381 5380 5380 5380 5380 5380 5380 5380 5380 5381 5381 5382 5383 5384 5385 5386 5387 5388 5390 5391 5392 5393 5394 5395 5396 5397 5399 5400 5401 5402 5403 5405 5406
5386 5384 5382 5380 5378 5376 5375 5374 5373 5372 5371 5370 5369 5369 5368 5368 5368 5368 5368 5369 5369 5370 5371 5372 5373 5373 5374 5375 5377 5378 5379 5380 5381 5382 5383 5385 5386 5387 5388 5389 5390 5391 5392
5376 5374 5372 5370 5368 5367 5365 5364 5363 5362 5361 5360 5359 5358 5357 5357 5356 5356 5356 5357 5358 5358 5359 5359 5360 5361 5362 5363 5364 5365 5366 5367 5369 5370 5371 5372 5373 5374 5375 5376 5377 5377 5378
5367 5365 5363 5361 5359 5358 5356 5355 5353 5352 5351 5350 5349 5347 5347 5346 5346 5345 5345 5346 5346 5347 5347 5348 5348 5349 5350 5351 5351 5353 5354 5355 5356 5357 5359 5360 5361 5362 5363 5363 5364 5364 5364
5359 5356 5354 5352 5351 5349 5347 5346 5344 5343 5341 5340 5339 5337 5336 5336 5335 5335 5335 5335 5335 5336 5336 5337 5337 5338 5338 5339 5340 5341 5342 5343 5345 5346 5347 5348 5349 5349 5350 5350 5351 5351 5351
5351 5348 5346 5344 5342 5341 5339 5337 5336 5334 5333 5331 5330 5328 5327 5326 5325 5325 5325 5325 5325 5325 5326 5326 5327 5327 5328 5328 5329 5330 5331 5332 5333 5334 5335 5336 5337 5338 5338 5339 5339 5339 5339
5342 5340 5338 5337 5335 5333 5332 5330 5328 5327 5325 5323 5322 5320 5319 5318 5317 5316 5316 5316 5316 5316 5316 5317 5317 5317 5318 5318 5319 5320 5321 5322 5323 5323 5324 5325 5325 5326 5327 5327 5327 5327 5327
5335 5333 5331 5329 5327 5326 5324 5323 5321 5319 5318 5316 5314 5313 5311 5310 5308 5307 5307 5307 5306 5307 5307 5307 5308 5308 5308 5308 5309 5309 5310 5310 5311 5312 5313 5313 5314 5315 5315 5315 5315 5316 5316
5327 5325 5323 5321 5320 5318 5317 5315 5314 5312 5310 5308 5306 5305 5303 5302 5301 5300 5299 5298 5298 5298 5298 5298 5299 5299 5299 5299 5299 5299 5299 5299 5300 5301 5301 5302 5303 5303 5303 5304 5304 5304 5304
5319 5317 5315 5313 5312 5311 5309 5308 5306 5304 5302 5301 5299 5297 5296 5294 5293 5292 5291 5291 5290 5290 5290 5290 5290 5290 5290 5290 5289 5289 5289 5289 5290 5290 5291 5291 5292 5292 5292 5292 5292 5292 5293